Weather in Plishkari

Russia / Perm Krai     57°00′05″N   55°04′14″E
temp.,
°C
wind,
m/s
gust,
m/s
humid.,
%
clouds,
%
prec.,
mm/h
press.,
hPa
HPBL,
m
23 may, mon
mon2323:00+2sw358158 0.3 99879
02:000sw348852 0.0 99864
05:00−1sw34925 0.0 99877
08:00+3sw46716 0.0 998483
11:00+7sw575399 0.0 9971636
14:00+8ssw4658100 0.1 9981431
17:00+9sw575799 0.1 9991558
20:00+7ssw4668100 0.1 999482
24 may, tue
tue2423:00+4ssw498192 0.3 1001232
02:00+2s35898 0.0 100384
05:00+1sse329143 0.0 100438
08:00+5sse478183 0.1 1005406
11:00+9ssw6855100 0.1 10051809
14:00+10s5654100 0.0 10061508
17:00+11s565447 0.1 10071640
20:00+10sse4768100 0.1 1008306
25 may, wed
wed2523:00+6se2278100 0.1 100910
02:00+5ese2282100 0.0 100911
05:00+4se2286100 0.0 100818
08:00+8s117724 0.0 1008225
11:00+12nne0160100 0.0 10071087
14:00+14se225191 0.0 10071630
17:00+14sw2255100 0.1 10061294
20:00+10wnw6879100 0.1 1007391
26 may, thu
thu2623:00+7w3694100 0.1 1008204
02:00+7w3593100 0.1 1008316
05:00+4w359564 0.1 1008112
08:00+6w357992 0.0 1008357
11:00+10wsw565868 0.2 10071647
14:00+9wsw786644 0.3 10071235
17:00+6wsw6868100 0.4 10091185
20:00+8wsw697325 0.1 10081079
27 may, fri
fri2723:00+5ssw4108154 0.1 1008350
02:00+4ssw51094100 0.1 1006635
05:00+5s61193100 0.5 1004952
08:00+7s798889 0.4 1003631
11:00+7s6994100 1.3 1003587
14:00+9s5989100 0.8 1003744
17:00+9sse71496100 5.1 1001579
20:00+10ssw81493100 1.8 1000819